Regional Weather Roundup
Issued by NWS

Home | Current Version | Previous Version | Graphics & Text | Print | Product List | Glossary On
Versions: 1 2 3 4 5 6 7 8 9 10 11 12 13 14 15 16 17 18 19 20 21 22 23 24 25 26 27 28 29 30 31 32 33 34 35 36 37 38 39 40 41 42 43 44 45 46 47 48 49 50
000
ASUS45 KBOI 240410
RWRID
WEATHER ROUNDUP FOR IDAHO
NATIONAL WEATHER SERVICE BOISE ID
1000 PM MDT WED JUL 23 2014

NOTE: "FAIR" INDICATES FEW OR NO CLOUDS BELOW 12000 FEET
WITH NO SIGNIFICANT WEATHER AND/OR OBSTRUCTIONS TO VISIBILITY

IDZ012-014-240500-
SOUTHWEST IDAHO


CITY           SKY/WX    TMP DP  RH WIND       PRES   REMARKS
BOISE          CLEAR     83  42  23 W8        29.90R
CALDWELL       CLEAR     77  48  36 N8        29.92R
MOUNTAIN HOME  CLEAR     81  33  17 CALM      29.90R
$$

IDZ016-017-240500-
SOUTHCENTRAL IDAHO


CITY           SKY/WX    TMP DP  RH WIND       PRES   REMARKS
BURLEY         PTCLDY    71  50  47 SW9       29.95R
JEROME         CLEAR     77  48  35 W12       29.96R
TWIN FALLS     CLEAR     83  42  23 W14       29.97R
$$

IDZ019>023-240500-
SOUTHEAST IDAHO


CITY           SKY/WX    TMP DP  RH WIND       PRES   REMARKS
IDAHO FALLS    CLEAR     82  40  22 SE7       29.97F
POCATELLO      CLEAR     74  41  30 SE3       29.95S
REXBURG        CLEAR     74  46  36 E5        29.99S
$$

IDZ006-010-011-018-031-032-240500-
CENTRAL IDAHO MOUNTAINS


CITY           SKY/WX    TMP DP  RH WIND       PRES   REMARKS
MCCALL         CLEAR     69  40  34 W6        30.03R
HAILEY         PTCLDY    73  45  35 W7        30.07R
STANLEY          N/A     69  37  30 SW3       30.15R
SALMON         PTCLDY    75  45  33 S3        29.90R
CHALLIS          N/A     82  28  14 SW10      29.98R
$$

IDZ002-004-006-007-026-240500-
NORTHERN IDAHO


CITY           SKY/WX    TMP DP  RH WIND       PRES   REMARKS
LEWISTON       PTCLDY    67  49  52 NW20G29   30.00R
LOWELL           N/A     69  54  58 CALM      30.04R
COEUR D`ALENE  MOCLDY    61  52  72 CALM      30.00S
MULLAN PASS    LGT RAIN  51  51 100 VRB7G20   30.13R VSB 1/4
$$



USA.gov is the U.S. government's official web portal to all federal, state and local government web resources and services.